TIANWANG 1B (TW-1B)
1 40927U 15051C   19361.40272074  .00010688  00000-0  14347-3 0  9995
2 40927  97.1147  46.5146 0008304  42.0836  84.8639 15.58067518239825
TIANWANG 1A (TW-1A)
1 40928U 15051D   19361.35666162  .00002047  00000-0  50304-4 0  9999
2 40928  97.1278  28.3248 0012487  94.5422  35.2358 15.41718872238692
LAPAN A2
1 40931U 15052B   19359.88757001 -.00001545  00000-0 -30507-3 0  9998
2 40931   5.9863 140.3737 0012925 339.8660  20.0615 14.76612775229417
LQSAT
1 40958U 15057A   19361.18201130  .00000017  00000-0  10202-4 0  9997
2 40958  97.8776  64.9784 0017827 351.1081   8.9809 14.73101480226995
CHUBUSAT 2
1 41338U 16012B   19361.18345713  .00000267  00000-0  13950-4 0  9998
2 41338  31.0046   7.7562 0013772 200.0651 159.9444 15.00224081211694
CHUBUSAT 3
1 41339U 16012C   19361.39697473  .00000249  00000-0  12516-4 0  9992
2 41339  31.0136   4.2466 0013334 210.4040 149.5823 15.00394104211725
OUFTI-1
1 41458U 16025C   19361.53616923  .00000910  00000-0  49481-4 0  9991
2 41458  98.1004  98.1613 0166335  72.0644 289.8637 15.06343415201447
E-STAR-2
1 41459U 16025D   19361.53385085  .00000951  00000-0  51860-4 0  9993
2 41459  98.1012  97.7039 0167688  73.7969 288.1612 15.05946226201414
AAUSAT 4
1 41460U 16025E   19361.52470803  .00001241  00000-0  64761-4 0  9994
2 41460  98.0985  99.4554 0157197  64.5435 297.1950 15.08035142201576
NUSAT 1
1 41557U 16033B   19361.53849748  .00000898  00000-0  35943-4 0  9996
2 41557  97.4118  87.9018 0013135 346.6833  13.4058 15.27622622199378
BEESAT 4
1 41619U 16040W   19361.12730524  .00001074  00000-0  47757-4 0  9992
2 41619  97.3447  59.5705 0012790  73.4064 286.8577 15.23566508183007
PRATHAM
1 41783U 16059A   19360.41604538  .00000066  00000-0  21946-4 0  9992
2 41783  98.0434  55.5300 0034436 142.5190 217.8423 14.63028500173437
ALSAT 1N
1 41789U 16059G   19361.40329742  .00000065  00000-0  21224-4 0  9997
2 41789  98.0469  58.9150 0029322 127.9406 232.4454 14.64285949173706
NAYIF 1
1 42017U 17008BX  19360.15364377  .00001217  00000-0  50126-4 0  9994
2 42017  97.3829  65.1029 0005448 203.8404 156.2582 15.26005647158963
MAX VALIER SAT
1 42778U 17036P   19361.41965677  .00000707  00000-0  33631-4 0  9994
2 42778  97.3306  54.6205 0010648 270.4717  89.5300 15.22319841139405
